Location: Unspecified
(47.9110°N, 14.3980°E)
Time: 15:31:51
(UTC+00:00)

Cosmos 841 Rocket - Pass Details

Date: 06 August 2020
Orbit: 746 x 773 km, 74.0° (Epoch: 18 September)

Event Time Altitude Azimuth Distance (km) Brightness Sun altitude
Rises 21:10:58 0° 342° (NNW) 3,225 8.2 -20.6°
Reaches altitude 10° 21:13:30 10° 350° (N) 2,301 7.0 -20.8°
Maximum altitude 21:18:23 39° 59° (ENE) 1,134 4.3 -21.2°
Enters shadow 21:20:01 31° 99° (E) 1,319 4.4 -21.3°
